Location: Newark
(54.6833°N, 25.2833°E)
Time: 08:16:32
(UTC+00:00)

Tiros 1 despin weight - Pass Details

Date: 24 November 2019
Orbit: 594 x 642 km, 48.2° (Epoch: 12 December)

Event Time Altitude Azimuth Distance (km) Brightness Sun altitude
Rises 13:58:53 0° 268° (W) 2,834 ? -0.1°
Reaches altitude 10° 14:01:26 10° 256° (WSW) 1,934 ? -0.4°
Maximum altitude 14:05:07 26° 200° (SSW) 1,191 ? -0.9°
Drops below altitude 10° 14:08:50 10° 143° (SE) 1,947 ? -1.3°
Sets 14:11:24 0° 131° (SE) 2,857 ? -1.6°
